Home > Weather > Apeldoorn > Past weeks

Flag for Netherlands Weather for the Past 2 Weeks in Apeldoorn, Netherlands

Now
41 °F

Passing clouds.


Feels Like: 41 °F
Forecast: 41 / 63 °F
Wind: 1 mph from North

Location: Deelen

Current Time: May 4, 2016 at 8:55:49 AM

Latest Report: May 4, 2016 at 7:55 AM


Visibility: N/A

Pressure: 30.39 "Hg

Humidity: 93%

Dew Point: 39 °F

Location of ApeldoornLocation

Historic Weather in Apeldoorn — Graph

°F

Apeldoorn Temperature Yesterday

Maximum temperature yesterday: 57 °F (at 3:55 PM)
Minimum temperature yesterday: 37 °F (at 11:25 PM)
Average temperature yesterday: 51 °F

High & Low Weather Summary for the Past Weeks

 TemperatureHumidityPressure
High64 °F (May 2, 2:55 PM)100% (Apr 20, 4:25 AM)30.48 "Hg (Apr 20, 4:25 AM)
Low28 °F (Apr 20, 3:55 AM)39% (Apr 20, 4:25 PM)29.45 "Hg (Apr 26, 5:55 AM)
Average45 °F75%30.03 "Hg
* Reported Apr 19 6:25 AM — May 4 6:55 AM, Apeldoorn, Weather by CustomWeather, © 2016

Note: Actual official high and low records may vary slightly from our data, if they occured in-between our weather recording intervals... More about our weather records

Advertising

Apeldoorn Weather History for the Previous 24 Hours

Scroll right to see more
 ConditionsComfort  
Time TempWeatherWind HumidityBarometerVisibility
6:55 AM
Wed, May 4
37 °FChilly.2 mph93%30.39 "HgN/A
6:25 AM32 °FPassing clouds.2 mph93%30.39 "HgN/A
5:55 AM32 °FPassing clouds.2 mph93%30.39 "HgN/A
5:25 AM32 °FPassing clouds.1 mph93%30.36 "HgN/A
4:55 AM32 °FChilly.1 mph93%30.36 "HgN/A
4:25 AM32 °FPassing clouds.1 mph93%30.36 "HgN/A
3:55 AM32 °FPassing clouds.1 mph93%30.36 "HgN/A
3:25 AM32 °FPassing clouds.No wind100%30.36 "HgN/A
2:55 AM34 °FPassing clouds.1 mph87%30.36 "HgN/A
2:25 AM34 °FPassing clouds.No wind93%30.36 "HgN/A
1:55 AM34 °FPassing clouds.1 mph93%30.36 "HgN/A
1:25 AM34 °FPassing clouds.1 mph93%30.36 "HgN/A
12:55 AM36 °FPassing clouds.2 mph87%30.36 "HgN/A
12:25 AM37 °FChilly.1 mph87%30.36 "HgN/A
11:55 PM
Tue, May 3
37 °FPassing clouds.1 mph87%30.36 "HgN/A
11:25 PM37 °FPassing clouds.1 mph93%30.33 "HgN/A
10:55 PM39 °FChilly.1 mph87%30.33 "HgN/A
10:25 PM41 °FPassing clouds.5 mph81%30.33 "HgN/A
9:55 PM43 °FPassing clouds.2 mph81%30.33 "HgN/A
9:25 PM46 °FPassing clouds.3 mph71%30.30 "HgN/A
8:55 PM50 °FCool.7 mph62%30.30 "HgN/A
8:25 PM52 °FPassing clouds.9 mph58%30.30 "HgN/A
7:55 PM52 °FPassing clouds.9 mph58%30.30 "HgN/A
7:25 PM54 °FPassing clouds.13 mph51%30.27 "HgN/A
6:55 PM54 °FPassing clouds.10 mph51%30.27 "HgN/A
6:25 PM57 °FScattered clouds.12 mph44%30.27 "HgN/A
5:55 PM55 °FRefreshingly cool.10 mph44%30.27 "HgN/A
5:25 PM55 °FPassing clouds.10 mph44%30.24 "HgN/A
4:55 PM57 °FPassing clouds.14 mph41%30.24 "HgN/A
4:25 PM57 °FRefreshingly cool.13 mph41%30.24 "HgN/A
3:55 PM57 °FRefreshingly cool.12 mph41%30.24 "HgN/A
3:25 PM55 °FScattered clouds.14 mph47%30.24 "HgN/A
2:55 PM55 °FPartly sunny.15 mph47%30.24 "HgN/A
2:25 PM55 °FPartly sunny.15 mph47%30.21 "HgN/A
1:55 PM55 °FBroken clouds.13 mph47%30.21 "HgN/A
1:25 PM54 °FBroken clouds.13 mph54%30.21 "HgN/A
12:55 PM55 °FRefreshingly cool.13 mph55%30.21 "HgN/A
11:25 AM54 °FBroken clouds.12 mph58%30.18 "HgN/A
10:55 AM52 °FPartly sunny.12 mph67%30.18 "HgN/A
10:25 AM52 °FPartly sunny.13 mph67%30.15 "HgN/A
9:55 AM50 °FPassing clouds.14 mph76%30.15 "HgN/A
9:25 AM50 °FBroken clouds.12 mph82%30.15 "HgN/A
8:55 AM50 °FBroken clouds.10 mph82%30.12 "HgN/A
8:25 AM48 °FBroken clouds.6 mph94%30.12 "HgN/A
Weather by CustomWeather, © 2016

See weather overviewHow to use our weather pages